Regional Weather Roundup
Issued by NWS Little Rock, AR

Home | Current Version | Previous Version | Graphics & Text | Print | Product List | Glossary On
Versions: 1 2 3 4 5 6 7 8 9 10 11 12 13 14 15 16 17 18 19 20 21 22 23 24 25 26 27 28 29 30 31 32 33 34 35 36 37 38 39 40 41 42 43 44 45 46 47 48 49
000
ASUS44 KLZK 281705
RWRLZK

WEATHER ROUNDUP FOR ARKANSAS
NATIONAL WEATHER SERVICE LITTLE ROCK AR
1100 AM CST WED JAN 28 2015

NOTE: "FAIR" INDICATES FEW OR NO CLOUDS BELOW 12,000 FEET WITH NO
SIGNIFICANT WEATHER AND/OR OBSTRUCTIONS TO VISIBILITY.

ARZ001-003-010-029-281800-
NORTHWEST ARKANSAS

CITY           SKY/WX    TMP DP  RH WIND       PRES   REMARKS
FAYETTEVILLE   SUNNY     61  38  42 S18G28    30.10F
FORT SMITH     SUNNY     55  38  52 E10       30.15F
HARRISON       SUNNY     56  37  49 SE15      30.14S
BENTONVILLE    SUNNY     64  37  36 S16G23    30.09F
ROGERS         SUNNY     65  38  36 S15G23    30.09F
SILOAM SPGS    SUNNY     64  37  36 S22       30.09F
HIGHFILL       SUNNY     64  38  38 S16       30.07F
SPRINGDALE     SUNNY     64  37  36 S20       30.11F
$$

ARZ004-005-016-281800-
NORTH CENTRAL ARKANSAS

CITY           SKY/WX    TMP DP  RH WIND       PRES   REMARKS
BATESVILLE     SUNNY     48  34  57 SE10      30.26S
FLIPPIN        SUNNY     52  32  46 S9G16     30.17F
MTN HOME       SUNNY     48  33  56 SE12      30.17F
$$

ARZ040-041-281800-
WEST CENTRAL ARKANSAS

CITY           SKY/WX    TMP DP  RH WIND       PRES   REMARKS
MENA           SUNNY     57  41  54 CALM      30.17F
MOUNT IDA      SUNNY     60  39  45 VRB5      30.17F
$$

ARZ009-017-025-026-028-281800-
NORTHEAST ARKANSAS

CITY           SKY/WX    TMP DP  RH WIND       PRES   REMARKS
CORNING        FAIR      43  32  65 SE9       30.29F
JONESBORO      SUNNY     44  31  60 S8        30.28F
NEWPORT        SUNNY     47  33  58 S12       30.29F
WALNUT RIDGE   SUNNY     45  30  57 SE10      30.28F
BLYTHEVILLE    SUNNY     43  30  60 SE10      30.30F
NW BLYTHEVILLE SUNNY     43  32  65 S12       30.30
$$

ARZ022-023-033-042-044-281800-
CENTRAL ARKANSAS

CITY           SKY/WX    TMP DP  RH WIND       PRES   REMARKS
LITTLE ROCK    MOSUNNY   53  35  50 SE12      30.25F
N LITTLE ROCK  MOSUNNY   50  38  64 SE15      30.25F
JACKSONVILLE     N/A     51  35  54 SE13      30.24F
SEARCY         SUNNY     49  36  61 SE10      30.28F
HOT SPRINGS    SUNNY     55  38  52 SE8       30.23F
RUSSELLVILLE   SUNNY     51  37  58 VRB5      30.21F
CLINTON        FAIR      52  36  54 SE5       30.25F
$$

ARZ036-281800-
EAST ARKANSAS

CITY           SKY/WX    TMP DP  RH WIND       PRES   REMARKS
WEST MEMPHIS   SUNNY     47  31  53 S8        30.28F
$$

ARZ050-053-066-070-073-281800-
SOUTHWEST ARKANSAS

CITY           SKY/WX    TMP DP  RH WIND       PRES   REMARKS
ARKADELPHIA    FAIR      58  41  53 S7        30.24F
CAMDEN         SUNNY     59  37  44 MISG      30.25R
TEXARKANA      SUNNY     65  43  44 S9        30.19F
EL DORADO      SUNNY     59  40  49 SE8       30.24S
DE QUEEN       SUNNY     58  41  53 E6        30.17F
$$

ARZ056-057-069-281800-
SOUTHEAST ARKANSAS

CITY           SKY/WX    TMP DP  RH WIND       PRES   REMARKS
PINE BLUFF     SUNNY     51  38  60 E12       30.26F
STUTTGART      SUNNY     48  36  61 SE12G17   30.28F
MONTICELLO     SUNNY     55  35  47 SE9       30.26F

$$





USA.gov is the U.S. government's official web portal to all federal, state and local government web resources and services.